Muncie, IN

5:19 AM EDT on April 27, 2018 (GMT -0400)
Delaware County-Johnson

Weather History for KMIE - April, 2012

Change the Weather History Date:

Sunday, April 8, 2012

  Actual Average Record
Temperature  
Mean Temperature 55 °F 49 °F  
Max Temperature 64 °F 59 °F 82 °F (2001)
Min Temperature 45 °F 38 °F 17 °F (1972)
Degree Days  
Heating Degree Days 10 17  
Month to date heating degree days 90 144  
Since 1 July heating degree days 4341 5314  
Cooling Degree Days 0 0  
Month to date cooling degree days 1 0  
Year to date cooling degree days 38 1  
Growing Degree Days 6 (Base 50)    
Moisture  
Dew Point 26 °F    
Average Humidity 43    
Maximum Humidity 71    
Minimum Humidity 14    
Precipitation  
Precipitation T in 0.13 in 1.10 in (1965)
Month to date precipitation T 0.97  
Year to date precipitation 7.16 8.46  
Sea Level Pressure  
Sea Level Pressure 30.15 in    
Wind  
Wind Speed 12 mph (WNW)    
Max Wind Speed 28 mph    
Max Gust Speed 36 mph    
Visibility 10 miles    
Events Rain    
T = Trace of Precipitation, MM = Missing Value Source: NWS Daily Summary

Daily Weather History Graph

Daily Weather History Graph

Search for Another Location

Airport or City:

Astronomy

Apr. 08, 2012 Rise Set
Actual Time 7:13 AM EDT 8:13 PM EDT
Civil Twilight 6:45 AM EDT 8:41 PM EDT
Nautical Twilight 6:12 AM EDT 9:14 PM EDT
Astronomical Twilight 5:38 AM EDT 9:49 PM EDT
Moon 11:00 PM EDT (4/8) 8:09 AM EDT (4/8)
Length of Visible Light 13h 55m
Length of Day
13h 00m
Waning Gibbous, 95% of the Moon is Illuminated
Apr 8
Waning Gibbous
Apr 13
Last Quarter
Apr 21
New
Apr 29
First Quarter
May 5
Full

Hourly Weather History & Observations

Time (EDT) Temp. Dew Point Humidity Pressure Visibility Wind Dir Wind Speed Gust Speed Precip Events Conditions
12:53 AM 57.0 °F 24.1 °F 28% 30.13 in 10.0 mi SW 4.6 mph - N/A   Overcast
1:53 AM 55.9 °F 26.1 °F 32% 30.14 in 10.0 mi WSW 6.9 mph - N/A   Overcast
2:53 AM 54.0 °F 30.9 °F 41% 30.13 in 10.0 mi Calm Calm - 0.00 in   Overcast
3:53 AM 53.1 °F 35.1 °F 50% 30.12 in 10.0 mi Calm Calm - 0.00 in Rain Light Rain
4:53 AM 54.0 °F 36.0 °F 51% 30.12 in 10.0 mi West 10.4 mph - 0.00 in   Overcast
5:53 AM 53.1 °F 41.0 °F 64% 30.14 in 10.0 mi NW 10.4 mph - N/A   Overcast
6:53 AM 51.1 °F 39.9 °F 66% 30.16 in 10.0 mi NNW 20.7 mph - N/A   Overcast
7:53 AM 48.9 °F 39.9 °F 71% 30.19 in 10.0 mi NW 13.8 mph - N/A   Clear
8:53 AM 51.1 °F 37.0 °F 59% 30.20 in 10.0 mi NNW 17.3 mph 24.2 mph N/A   Clear
9:53 AM 54.0 °F 30.0 °F 40% 30.20 in 10.0 mi North 19.6 mph 27.6 mph N/A   Clear
10:53 AM 55.9 °F 27.0 °F 33% 30.21 in 10.0 mi North 19.6 mph - N/A   Clear
11:53 AM 57.9 °F 28.0 °F 32% 30.20 in 10.0 mi NNW 18.4 mph 26.5 mph N/A   Clear
12:53 PM 61.0 °F 26.1 °F 26% 30.19 in 10.0 mi NW 19.6 mph 32.2 mph N/A   Clear
1:53 PM 62.1 °F 25.0 °F 24% 30.18 in 10.0 mi NW 18.4 mph 28.8 mph N/A   Clear
2:53 PM 63.0 °F 12.9 °F 14% 30.17 in 10.0 mi NNW 21.9 mph 33.4 mph N/A   Clear
3:53 PM 62.1 °F 14.0 °F 15% 30.16 in 10.0 mi NW 20.7 mph 33.4 mph N/A   Clear
4:53 PM 63.0 °F 17.1 °F 17% 30.14 in 10.0 mi NW 16.1 mph - N/A   Clear
5:53 PM 61.0 °F 16.0 °F 17% 30.13 in 10.0 mi NW 12.7 mph - N/A   Clear
6:53 PM 60.1 °F 16.0 °F 18% 30.12 in 10.0 mi WNW 10.4 mph - N/A   Clear
7:53 PM 57.0 °F 18.0 °F 22% 30.11 in 10.0 mi West 4.6 mph - N/A   Clear
8:53 PM 54.0 °F 21.0 °F 28% 30.10 in 10.0 mi WSW 3.5 mph - N/A   Clear
9:53 PM 52.0 °F 23.0 °F 32% 30.10 in 10.0 mi WSW 5.8 mph - N/A   Mostly Cloudy
10:53 PM 52.0 °F 23.0 °F 32% 30.10 in 10.0 mi WSW 5.8 mph - N/A   Overcast